Regional Weather Roundup
Issued by NWS Binghamton, NY

Home | Current Version | Previous Version | Text Only | Print | Product List | Glossary On
Versions: 1 2 3 4 5 6 7 8 9 10 11 12 13 14 15 16 17 18 19 20 21 22 23 24 25
860
ASUS41 KBGM 221210
RWRBGM
RWRBGM
BINGHAMTON REGIONAL WEATHER ROUNDUP
NATIONAL WEATHER SERVICE BINGHAMTON NY
800 AM EDT FRI MAY 22 2015

Note: "fair" indicates few or no clouds below 12,000 feet with no
significant weather and/or obstructions to visibility.

* = Station(s) that does not report precipitation, such as rain,
snow, etc, also no thunder or fog.

!NYZ009-015>018-022>025-036-037-044>046-055>057-062-221300
...CENTRAL NEW YORK...

CITY           SKY/WX    TMP DP  RH WIND       PRES   REMARKS
BINGHAMTON     MOSUNNY   48  39  71 W9        29.93R
CORTLAND       FAIR      50  43  76 W6        29.95R
DANSVILLE      CLOUDY    54  35  48 N6        29.98R
ELMIRA         MOSUNNY   51  41  68 SW7       29.96R
ITHACA         MOSUNNY   54  39  56 W8        29.96R
MONTICELLO     SUNNY     48  39  71 W9        29.93S
NORWICH        PTSUNNY   48  41  76 CALM      29.93R
ONEONTA        MOSUNNY   48  36  61 W6        29.90S
PENN YAN       MOSUNNY   55  37  50 W8        29.96R
ROME           SUNNY     51  41  68 W9        29.91R
SIDNEY         MOSUNNY   52  46  82 W6        29.93S
SYRACUSE       MOSUNNY   52  40  63 W13       29.93R
$$

!PAZ038>040-043-044-047-048-072-221300
...NORTHEAST PENNSYLVANIA...

CITY           SKY/WX    TMP DP  RH WIND       PRES   REMARKS
HAZLETON       SUNNY     50  39  66 SW6       30.00S
SCRANTON       SUNNY     52  41  66 SW10      29.97R
TOWANDA*       SUNNY     52  41  66 MISG      29.98R
$$
&&
KEY
WCI = WIND CHILL INDEX
VSB = VISIBILITY
HX  = HEAT INDEX
$$



USA.gov is the U.S. government's official web portal to all federal, state and local government web resources and services.